| time (UTC) | temp F | wind direction | speed MPH | gust MPH | rain 1hr in | rain 24hr in | rain mn in | humidity % | barometer mb |
| 20260506132807 | 52 | 167 | 0.0 | 2.0 | 0.00 | 0.00 | 0.00 | 65 | 1011.2 |
| 20260506122807 | 52 | 150 | 0.0 | 2.0 | 0.00 | 0.00 | 0.00 | 64 | 1010.8 |
| 20260506115523 | 53 | 169 | 0.0 | 2.0 | 0.00 | 0.00 | 0.00 | 62 | 1010.2 |
| 20260506102749 | 54 | 162 | 0.0 | 0.0 | 0.00 | 0.00 | 0.00 | 59 | 1009.8 |
| 20260506092733 | 56 | 149 | 0.0 | 2.0 | 0.00 | 0.00 | 0.00 | 54 | 1009.7 |
| 20260506082731 | 59 | 156 | 0.0 | 2.0 | 0.00 | 0.00 | 0.00 | 45 | 1009.7 |
| 20260506072719 | 60 | 171 | 0.0 | 5.0 | 0.00 | 0.00 | 0.00 | 41 | 1009.7 |
| 20260506042702 | 70 | 236 | 0.0 | 8.0 | 0.00 | 0.00 | 0.00 | 29 | 1008.1 |
| 20260506032648 | 72 | 163 | 0.0 | 5.0 | 0.00 | 0.00 | 0.00 | 28 | 1007.7 |
| 20260506022637 | 79 | 32 | 3.0 | 8.0 | 0.00 | 0.00 | 0.00 | 19 | 1007.6 |
| 20260506012633 | 81 | 113 | 0.0 | 8.0 | 0.00 | 0.00 | 0.00 | 18 | 1007.8 |
| 20260506002625 | 83 | 297 | 3.0 | 13.0 | 0.00 | 0.00 | 0.00 | 13 | 1008.1 |
| 20260505232614 | 81 | 9 | 3.0 | 10.0 | 0.00 | 0.00 | 0.00 | 18 | 1008.9 |
| 20260505222613 | 81 | 276 | 4.0 | 13.0 | 0.00 | 0.00 | 0.00 | 18 | 1009.5 |
| 20260505212558 | 79 | 348 | 2.0 | 10.0 | 0.00 | 0.00 | 0.00 | 19 | 1010.3 |
| 20260505202548 | 77 | 242 | 2.0 | 8.0 | 0.00 | 0.00 | 0.00 | 22 | 1011.2 |
| 20260505192545 | 73 | 3 | 3.0 | 10.0 | 0.00 | 0.00 | 0.00 | 26 | 1011.7 |
| 20260505182535 | 70 | 332 | 2.0 | 8.0 | 0.00 | 0.00 | 0.00 | 29 | 1012.6 |
| 20260505172533 | 68 | 278 | 2.0 | 8.0 | 0.00 | 0.00 | 0.00 | 32 | 1013.0 |
| 20260505162522 | 65 | 26 | 2.0 | 5.0 | 0.00 | 0.00 | 0.00 | 35 | 1013.4 |
| 20260505152510 | 62 | 263 | 0.0 | 8.0 | 0.00 | 0.00 | 0.00 | 42 | 1013.0 |